Temp
75 73 73 73 73 73 73 73 73 73 73 73 74 73 72 71 70 70 72 69 76 76 76 76 76 76 76 75 75 75 75 75 75
73 73 72 73 73 73 73 73 72 72 72 73 72 71 71 70 69 69 67 70 76 76 75 75 74 75 74 74 74 73 74 74 74
73 72 73 73 73 73 73 72 72 72 72 71 71 71 71 72 69 67 67 73 75 75 74 74 73 73 73 74 73 73 73 73 74
72 72 73 73 73 73 72 72 72 71 71 71 70 69 71 68 69 72 68 73 75 75 74 73 74 74 73 73 73 73 72 72 73
71 71 72 72 72 72 71 71 71 71 70 70 70 69 69 67 69 69 71 74 74 74 73 73 73 73 73 72 73 72 72 72 72
67 68 70 71 72 71 71 70 69 68 68 69 69 70 67 69 68 70 72 73 74 73 72 73 73 72 72 71 72 71 71 72 72
67 66 68 70 70 70 70 69 68 68 63 63 67 67 67 68 69 70 72 73 73 72 72 72 72 72 71 71 72 71 71 71 71
63 60 61 62 65 62 63 63 62 64 64 64 70 66 64 65 68 70 72 73 73 72 72 72 72 72 71 71 71 71 71 71 70
63 61 60 60 61 59 59 59 63 65 66 64 69 68 64 64 66 66 69 72 73 72 73 71 72 71 71 72 71 70 70 70 70
65 63 63 61 62 61 59 62 63 64 67 65 63 66 65 65 66 65 66 69 71 72 72 73 72 71 71 71 70 70 70 70 70
62 62 61 60 62 61 61 61 61 62 65 64 64 66 65 66 66 66 65 67 69 71 72 72 71 72 71 71 70 70 70 69 69
62 61 60 61 62 63 62 62 62 61 64 62 66 67 66 66 66 66 65 64 65 68 70 70 70 70 70 71 70 70 69 69 69
62 61 60 61 61 61 60 60 59 58 59 59 60 65 66 67 67 66 62 61 61 63 67 68 69 69 69 70 70 69 69 68 68
62 60 60 61 60 59 61 58 58 56 57 59 58 58 58 60 64 61 61 61 59 57 63 63 64 65 68 69 70 69 68 68 68
61 60 60 60 58 58 59 58 58 56 57 64 59 56 57 58 57 58 62 60 59 57 57 56 58 63 64 66 68 68 69 68 67
61 59 59 59 58 58 59 58 57 55 56 53 52 54 56 56 56 57 57 59 59 58 57 55 55 57 62 63 64 66 68 68 67
61 59 58 59 58 58 58 58 55 55 55 52 50 46 50 53 56 55 58 56 57 58 60 58 56 54 53 55 61 62 66 68 67
61 60 58 58 58 57 57 58 56 56 54 59 52 46 44 48 52 53 54 55 54 55 57 58 58 55 53 55 55 60 62 67 67
60 60 59 58 57 57 56 59 56 54 56 54 58 53 52 46 44 50 52 54 55 54 54 55 56 55 53 55 56 58 61 65 66
60 60 58 58 57 57 57 58 57 55 54 51 51 51 52 52 47 42 46 50 52 53 54 53 53 55 53 51 54 58 63 64 64
MSLP
1015.89 1016.36 1016.67 1016.97 1017.25 1017.51 1017.75 1017.94 1018.12 1018.24 1018.46 1018.59 1018.63 1018.74 1018.73 1018.72 1018.74 1019.08 1019.20 1019.38 1019.40 1019.51 1019.59 1019.65 1019.74 1019.75 1019.78 1019.88 1019.87 1019.75 1019.72 1019.77 1019.74
1016.15 1016.51 1016.87 1017.06 1017.22 1017.57 1017.93 1018.16 1018.40 1018.61 1018.73 1018.82 1018.94 1018.99 1018.82 1018.84 1019.20 1019.50 1019.54 1019.54 1019.71 1019.84 1019.99 1020.18 1020.34 1020.33 1020.37 1020.39 1020.45 1020.48 1020.39 1020.25 1020.12
1016.43 1016.68 1016.97 1017.17 1017.41 1017.69 1018.07 1018.40 1018.69 1018.87 1018.97 1019.07 1019.08 1018.82 1018.68 1019.08 1019.49 1019.80 1019.92 1020.00 1020.12 1020.29 1020.60 1020.89 1020.96 1020.96 1021.01 1020.99 1021.06 1021.07 1020.90 1020.77 1020.62
1016.52 1016.78 1017.04 1017.32 1017.55 1017.85 1018.30 1018.60 1018.87 1019.05 1019.12 1019.18 1019.22 1019.11 1018.99 1019.32 1019.70 1020.03 1020.44 1020.36 1020.55 1020.88 1021.26 1021.48 1021.49 1021.50 1021.55 1021.45 1021.49 1021.46 1021.38 1021.27 1021.06
1016.61 1016.96 1017.19 1017.52 1017.77 1018.12 1018.52 1018.81 1019.08 1019.23 1019.34 1019.41 1019.34 1019.30 1019.31 1019.60 1020.07 1020.55 1020.68 1020.77 1021.18 1021.46 1021.71 1021.85 1021.90 1022.02 1022.04 1021.94 1021.90 1021.83 1021.70 1021.65 1021.48
1016.84 1017.15 1017.38 1017.76 1018.01 1018.37 1018.72 1019.06 1019.35 1019.54 1019.50 1019.41 1019.56 1019.38 1019.61 1020.03 1020.56 1020.90 1021.03 1021.34 1021.67 1021.96 1022.20 1022.36 1022.40 1022.47 1022.46 1022.41 1022.27 1022.24 1022.11 1021.99 1021.91
1016.83 1017.22 1017.46 1017.92 1018.31 1018.61 1018.80 1019.20 1019.48 1019.57 1019.71 1019.60 1019.66 1019.86 1020.09 1020.56 1020.96 1021.24 1021.32 1021.75 1022.11 1022.48 1022.70 1022.76 1022.86 1022.84 1022.93 1022.76 1022.61 1022.71 1022.55 1022.34 1022.33
1016.94 1017.46 1017.71 1018.13 1018.63 1018.88 1019.08 1019.32 1019.54 1019.55 1019.81 1019.95 1020.03 1020.42 1020.78 1021.17 1021.47 1021.59 1021.57 1022.03 1022.37 1022.83 1022.97 1023.09 1023.19 1023.23 1023.19 1023.03 1023.11 1023.02 1022.87 1022.80 1022.81
1017.01 1017.59 1017.90 1018.25 1018.60 1019.02 1019.16 1019.45 1019.40 1019.39 1019.76 1020.21 1020.41 1020.80 1021.35 1021.71 1021.94 1022.06 1022.13 1022.38 1022.59 1023.04 1023.16 1023.43 1023.45 1023.52 1023.42 1023.35 1023.47 1023.33 1023.19 1023.20 1023.16
1016.67 1017.31 1017.83 1018.15 1018.47 1018.80 1019.19 1019.09 1019.29 1019.47 1020.08 1020.49 1021.08 1021.36 1021.86 1022.04 1022.38 1022.70 1022.83 1022.90 1023.02 1023.26 1023.50 1023.47 1023.64 1023.78 1023.75 1023.75 1023.81 1023.73 1023.58 1023.46 1023.38
1016.19 1017.00 1017.54 1017.96 1018.28 1018.64 1018.96 1019.24 1019.51 1019.67 1020.25 1020.88 1021.41 1021.76 1022.12 1022.41 1022.76 1023.05 1023.41 1023.34 1023.52 1023.68 1023.84 1023.83 1023.90 1023.92 1024.10 1024.12 1024.14 1024.10 1023.88 1023.91 1023.85
1015.90 1016.75 1017.44 1017.75 1018.13 1018.52 1019.01 1019.37 1019.59 1020.04 1020.41 1021.11 1021.38 1021.93 1022.34 1022.71 1023.01 1023.32 1023.62 1023.82 1024.16 1024.09 1024.29 1024.28 1024.29 1024.29 1024.46 1024.34 1024.47 1024.46 1024.40 1024.34 1024.26
1015.81 1016.60 1017.23 1017.59 1018.03 1018.61 1019.22 1019.79 1020.12 1020.54 1021.07 1021.46 1021.79 1021.94 1022.28 1022.77 1023.08 1023.43 1023.84 1024.19 1024.64 1024.72 1024.75 1024.83 1024.78 1024.75 1024.73 1024.66 1024.63 1024.78 1024.80 1024.72 1024.62
1015.81 1016.54 1017.08 1017.50 1018.18 1018.71 1019.33 1019.97 1020.28 1020.85 1021.43 1021.93 1022.15 1022.47 1022.85 1023.11 1023.33 1023.77 1024.04 1024.38 1024.84 1025.15 1025.23 1025.48 1025.58 1025.50 1025.27 1025.02 1024.93 1024.99 1025.03 1025.09 1025.03
1015.67 1016.56 1017.08 1017.56 1018.39 1018.90 1019.43 1020.04 1020.51 1020.96 1021.43 1022.15 1022.74 1023.03 1023.19 1023.43 1023.87 1024.10 1024.20 1024.59 1024.79 1025.12 1025.39 1025.57 1025.80 1025.89 1025.91 1025.73 1025.45 1025.31 1025.23 1025.42 1025.41
1015.56 1016.41 1017.10 1017.63 1018.34 1018.83 1019.34 1019.99 1020.63 1021.23 1021.54 1022.47 1023.32 1023.65 1023.68 1023.90 1024.17 1024.29 1024.54 1024.59 1024.83 1025.06 1025.37 1025.56 1025.74 1025.90 1026.05 1026.16 1026.14 1025.83 1025.46 1025.52 1025.64
1015.40 1016.10 1017.09 1017.63 1018.27 1018.81 1019.15 1019.71 1020.64 1021.15 1021.40 1022.50 1023.31 1024.39 1024.50 1024.25 1024.35 1024.39 1024.46 1024.73 1024.80 1024.93 1025.10 1025.42 1025.88 1026.11 1026.23 1026.42 1026.37 1026.32 1025.81 1025.58 1025.86
1014.99 1015.91 1016.78 1017.50 1018.06 1018.61 1019.01 1019.47 1020.16 1020.86 1021.38 1021.71 1021.95 1023.62 1023.93 1024.36 1024.61 1024.57 1024.63 1024.82 1024.98 1025.09 1025.23 1025.33 1025.55 1026.03 1026.39 1026.57 1026.59 1026.44 1026.10 1025.71 1025.91
1014.79 1015.57 1016.37 1017.14 1017.67 1018.28 1018.73 1019.28 1019.88 1020.41 1020.99 1021.59 1021.25 1021.66 1022.04 1023.68 1025.08 1024.87 1024.77 1024.83 1025.04 1025.22 1025.35 1025.56 1025.77 1026.02 1026.45 1026.87 1026.84 1026.59 1026.25 1025.97 1026.05
1014.78 1015.29 1015.97 1016.75 1017.34 1017.86 1018.23 1018.84 1019.51 1020.03 1020.52 1021.02 1021.26 1021.78 1021.92 1022.16 1023.58 1024.75 1024.85 1024.93 1024.94 1024.98 1025.29 1025.50 1025.79 1025.97 1026.24 1026.72 1026.90 1026.65 1026.22 1026.05 1026.15
Wind_Speed
15 14 14 14 14 14 14 15 14 14 12 10 9 5 4 6 8 8 12 7 17 17 17 17 18 18 19 17 17 17 17 18 19
15 15 14 14 15 15 15 15 14 13 12 10 6 4 7 4 9 8 7 7 17 18 21 22 21 21 20 20 19 19 19 19 19
16 16 16 16 16 16 16 15 14 14 12 7 5 7 8 12 9 7 6 13 21 22 22 20 19 19 18 16 17 17 17 19 18
16 16 17 16 17 17 16 15 16 14 11 7 7 7 10 7 7 8 5 17 21 20 19 18 16 17 16 17 18 16 16 16 16
16 13 15 16 17 17 16 16 16 13 11 6 5 6 7 8 10 7 8 21 19 19 19 16 17 16 15 16 17 18 17 16 16
10 10 13 14 16 17 17 16 15 12 8 4 5 4 3 8 7 5 19 20 18 18 16 16 15 15 14 15 17 17 17 16 15
9 10 12 14 16 15 16 17 15 8 4 3 6 5 8 8 8 6 20 18 18 17 16 15 14 14 14 13 17 18 17 18 17
5 4 4 5 9 4 6 7 4 5 4 4 6 8 8 5 4 8 19 18 19 17 16 14 15 14 13 16 18 17 17 18 17
7 4 5 5 4 5 5 3 5 5 8 8 9 10 7 5 4 6 14 17 18 16 16 14 15 12 15 16 16 16 17 16 17
8 5 5 4 5 5 4 5 4 4 11 10 7 11 9 8 6 5 12 15 17 15 14 14 13 12 12 15 15 16 15 15 16
6 6 5 4 5 4 5 5 4 5 8 10 8 9 7 8 8 7 7 16 14 13 12 12 13 12 13 13 13 14 14 15 14
7 6 5 5 5 7 5 4 4 5 5 7 9 7 7 7 8 7 6 9 12 13 12 11 12 12 12 11 12 11 13 13 14
6 5 5 5 5 5 5 4 5 5 5 4 5 4 5 5 5 4 5 6 5 8 11 10 11 9 10 9 11 11 12 12 11
6 5 5 6 5 5 5 3 5 5 5 5 5 5 5 5 4 6 6 8 7 4 12 12 11 10 9 8 8 9 11 11 11
7 5 6 6 5 5 4 5 4 5 5 6 5 4 3 4 4 5 3 6 8 7 6 5 5 9 8 9 10 8 9 11 10
7 6 6 6 5 6 7 5 7 4 4 5 5 4 4 4 3 3 4 3 5 6 5 4 4 4 10 8 8 8 8 8 9
7 8 6 7 5 7 6 6 4 3 5 5 4 3 3 1 2 2 4 5 3 3 4 6 6 4 4 5 8 8 8 10 10
8 8 6 7 5 6 6 7 7 9 4 12 5 4 4 4 2 3 3 5 3 4 4 5 5 6 4 4 5 7 9 9 10
7 9 8 7 5 7 6 6 4 5 10 4 2 2 6 4 2 2 3 4 4 5 3 5 4 6 5 6 5 7 6 9 9
7 8 8 8 5 7 8 8 6 5 5 3 3 1 0 4 5 3 3 1 2 4 4 5 4 5 5 5 3 6 4 8 7
Wind_Direction
132 128 127 124 123 122 117 112 109 104 105 112 115 77 353 319 82 77 73 62 84 85 85 80 79 74 72 72 64 66 63 61 57
135 133 131 131 126 120 119 112 108 111 114 115 102 36 323 81 75 76 77 88 90 81 76 69 62 61 59 60 57 53 54 55 52
139 137 138 132 126 123 118 113 113 112 112 107 70 29 30 88 85 76 71 84 87 74 68 63 60 60 59 58 57 51 50 50 51
140 139 136 130 126 121 118 116 115 113 112 91 45 13 72 100 103 90 69 91 79 76 68 66 67 62 58 60 59 56 55 56 49
138 137 132 129 127 121 118 118 115 112 97 72 35 6 14 83 79 79 91 80 80 78 74 70 69 70 69 61 64 57 57 55 52
137 131 127 128 130 123 121 121 120 111 103 75 11 11 124 88 86 94 87 83 80 77 75 71 67 67 62 64 66 63 53 61 53
120 116 122 131 123 125 127 131 137 132 126 48 32 49 57 84 96 97 93 89 85 81 80 75 70 67 73 61 67 61 55 57 52
112 110 110 112 112 117 125 142 169 172 137 103 79 65 58 75 96 101 102 98 93 88 82 76 72 75 69 73 62 63 60 58 55
132 137 135 141 133 164 163 180 179 145 117 90 71 77 79 76 71 82 93 103 96 93 82 76 79 76 75 73 68 63 66 62 62
154 152 153 164 142 166 178 129 130 131 101 96 85 88 87 84 88 80 83 92 91 85 80 77 81 80 71 68 70 73 65 64 63
141 135 149 150 144 152 131 137 123 107 106 111 112 107 102 97 94 88 84 85 85 89 76 71 76 76 82 77 72 66 71 72 68
134 140 140 149 144 134 127 120 98 93 95 114 116 126 125 115 120 116 99 84 64 86 78 72 79 76 73 80 77 66 70 59 57
128 131 136 151 133 131 125 131 116 107 105 104 113 122 119 129 126 124 113 112 84 66 89 84 67 65 80 78 73 74 66 65 59
126 129 139 130 123 121 134 121 123 120 114 115 101 95 90 95 86 85 91 113 115 102 94 82 66 56 50 68 75 73 74 69 61
131 134 138 131 129 131 132 135 127 130 136 117 100 98 100 97 106 116 108 115 133 136 131 118 95 79 57 41 46 72 77 70 59
143 137 142 140 143 156 150 135 135 129 121 100 73 50 69 86 113 127 131 141 135 155 161 152 129 117 89 65 42 32 54 89 69
148 140 153 152 151 156 153 141 134 137 143 137 109 119 352 7 166 161 155 172 147 142 131 125 142 130 107 84 56 29 7 98 80
146 147 152 160 156 162 160 154 150 162 172 169 143 145 180 132 234 211 175 158 156 174 143 125 127 134 121 92 44 17 357 104 84
153 154 157 169 160 163 159 162 155 145 179 187 137 104 135 164 154 260 207 174 181 164 150 134 132 118 103 84 49 12 348 94 88
170 165 163 170 165 166 164 164 166 161 169 162 138 133 150 135 134 164 203 109 185 164 159 149 148 135 139 123 62 22 38 109 105